#timestamp,LO_Frequency,Hit,StdDev 
1609884015.1,286047005.2,P
1609884016.0,286047005.2,P
1609884035.8,286047003.0,N
1609884055.6,286047002.9,N
1609884075.5,286047005.5,Y
1609884095.3,286046998.6,P
1609884115.1,286047000.7,N
1609884135.9,286047000.4,N
1609884155.7,286046998.6,N
1609884175.6,286046999.3,N
1609884195.4,286046998.8,N
1609884215.2,286046998.6,N
1609884235.1,286046999.9,N
1609884236.0,286046999.9,N
1609884255.8,286047002.2,N
1609884275.6,286047000.9,N
1609884295.5,286047000.6,N
1609884315.3,286047002.6,N
1609884335.2,286047004.2,N
1609884355.9,286047003.4,N
1609884375.7,286047003.8,N
1609884395.6,286047004.0,N
1609884415.4,286047001.4,N
1609884435.2,286047003.5,N
1609884455.1,286047001.4,N
1609884456.0,286047001.4,N
1609884475.8,286047001.3,N
1609884495.7,286047003.3,N
1609884515.5,286047004.2,N
1609884535.3,286047003.3,N
1609884555.2,286047004.3,N
1609884575.0,286047000.4,N
1609884575.9,286047000.4,N
1609884595.7,286046999.9,N
1609884615.6,286047002.2,N
1609884635.4,286047003.7,N
1609884655.3,286047001.8,N
1609884675.1,286047002.3,N
1609884676.0,286047002.3,N
1609884695.8,286046999.9,N
1609884715.7,286047002.7,N
1609884735.5,286047001.9,N
1609884755.3,286047002.4,N
1609884775.2,286047001.6,N
1609884795.0,286047002.0,N
1609884795.9,286047002.0,N
1609884815.8,286047001.9,N
1609884835.6,286047002.6,N
1609884855.4,286047002.2,N
1609884875.3,286047001.3,N
1609884895.1,286047003.0,N
1609884915.9,286047003.6,Y
1609884935.7,286047000.5,P
1609884955.5,286047001.1,N
1609884975.4,286047000.8,N
1609884995.2,286047001.0,N
1609885015.0,286046999.7,N
1609885015.9,286046999.7,N
1609885035.8,286047001.1,N
1609885055.6,286047000.6,N
1609885075.5,286047002.6,Y
1609885095.3,286046998.8,P
1609885115.1,286046998.9,N
1609885135.9,286047000.7,N
1609885155.7,286046998.2,N
1609885175.5,286046998.2,N
1609885195.4,286046999.5,N
1609885215.2,286046997.0,Y
1609885235.1,286046998.5,P
1609885236.0,286046998.5,P
1609885255.8,286047000.9,N
1609885275.6,286046998.1,N
1609885295.5,286046998.7,N
1609885315.3,286046999.5,N
1609885335.1,286046996.9,Y
1609885355.9,286046999.5,P
1609885375.7,286046998.3,P
1609885395.6,286047000.7,N
1609885415.4,286047001.8,N
1609885435.2,286047002.2,N
1609885455.1,286047001.3,N
1609885456.0,286047001.3,N
1609885475.8,286047001.4,N
1609885495.6,286046999.8,N
1609885515.5,286047000.7,N
1609885535.3,286047002.4,N
1609885555.2,286047000.5,N
1609885575.9,286047002.6,N
1609885595.7,286047000.9,N
1609885615.6,286046998.3,N
1609885635.4,286047000.0,N
1609885655.2,286047003.8,N
1609885675.1,286047001.9,N
1609885676.0,286047001.9,N
1609885695.8,286047000.2,N
1609885715.7,286047002.8,N
1609885735.5,286047002.0,N
1609885755.4,286047002.8,N
1609885775.2,286047004.0,N
1609885795.0,286047003.8,N
1609885795.9,286047003.8,N
1609885815.8,286047001.3,N
1609885835.6,286047001.3,N
1609885855.4,286047000.2,N
1609885875.3,286047002.2,N
1609885895.1,286047001.5,N
1609885915.9,286047003.7,N
1609885935.7,286047003.4,N
1609885955.5,286047001.4,N
1609885975.4,286047004.7,Y
1609885995.2,286047003.7,P
1609886015.0,286047003.8,P
1609886015.9,286047003.8,P
1609886035.8,286047001.8,N
1609886055.6,286047003.6,Y
1609886075.5,286047001.1,P
1609886095.3,286047000.1,N
1609886115.1,286046998.1,N
1609886135.9,286046998.4,N
1609886155.7,286046999.0,N
1609886175.6,286046998.3,N
1609886195.4,286046998.7,N
1609886215.2,286047000.4,N
1609886235.1,286047001.2,N
1609886236.0,286047001.2,N
1609886255.8,286046997.7,N
1609886275.6,286047001.0,N
1609886295.5,286046999.5,N
1609886315.3,286046999.1,N
1609886335.2,286046998.3,N
1609886355.9,286046998.4,N
1609886375.7,286046999.4,N
1609886395.6,286046999.2,N
1609886415.4,286046998.3,N
1609886435.2,286047000.0,N
1609886455.1,286046998.4,N
1609886456.0,286046998.4,N
1609886475.8,286046997.7,N
1609886495.7,286046997.7,N
1609886515.5,286046996.8,N
1609886535.3,286046997.6,N
1609886555.2,286046996.6,N
1609886575.9,286046997.3,N
1609886595.7,286046996.9,N
1609886615.6,286046998.7,N
1609886635.4,286046996.6,N
1609886655.3,286046998.6,N
1609886675.1,286047000.9,N
1609886676.0,286047000.9,N
1609886695.8,286047000.1,N
1609886715.7,286047000.5,N
1609886735.5,286046998.9,N
1609886755.3,286046998.8,N
1609886775.2,286046998.2,N
1609886795.0,286046998.5,N
1609886795.9,286046998.5,N
1609886815.8,286046998.6,N
1609886835.6,286047000.4,N
1609886855.4,286047000.8,N
1609886875.3,286047000.5,N
1609886895.1,286047000.7,N
1609886915.8,286047000.4,N
1609886935.7,286047000.5,N
1609886955.5,286046999.9,N
1609886975.4,286047000.6,N
1609886995.2,286047000.8,N
1609887015.0,286046998.8,N
1609887015.9,286046998.8,N
1609887035.8,286046999.4,N
1609887055.6,286046997.3,N
1609887075.5,286046997.6,N
1609887095.3,286046996.5,N
1609887115.1,286046998.8,N
1609887135.9,286046999.8,N
1609887155.7,286047001.1,N
1609887175.6,286047000.4,N
1609887195.4,286047000.9,N
1609887215.2,286047000.6,N
1609887235.1,286046998.1,N
1609887236.0,286046998.1,N
1609887255.8,286046998.3,N
1609887275.6,286046998.3,N
1609887295.5,286046998.1,N
1609887315.7,286046996.9,N
1609887335.5,286046997.8,N
1609887355.4,286046996.1,N
1609887375.2,286046999.5,N
1609887395.0,286046999.0,N
1609887395.9,286046999.0,N
1609887415.8,286047000.9,N
1609887435.6,286046999.8,N
1609887455.5,286047000.4,N
1609887475.3,286047000.4,N
1609887495.1,286046998.5,N
1609887515.9,286046998.5,N
1609887535.7,286047001.1,N
1609887555.5,286046998.6,N
1609887575.4,286046998.4,N
1609887595.2,286047001.0,N
